BADR-4

Last updated on Jan. 15, 2021, 6:30 a.m. UTC

1 29526U 06051A   21014.81480779  .00000138  00000-0  00000-0 0  9990
2 29526   0.0461 347.9900 0005622 318.6540 127.1239  1.00271567 31436
UTC
Height (km)
Latitude
Longitude
Inclination
Orbital Period
UTC large
Height (km)
Speed (km/s)
/
Latitude / Longitude
Inclination (degrees)
Orbital Period (minutes)
Azimuth
Elevation
Range (km)
Doppler Factor
iOS Compass Heading
iOS Angle

Next 30 passes for location: Hong Kong

Rise time Rise Azimuth (degrees) Set time Set Azimuth (degrees) Duration Max altitude (degrees)

No matching passes for this satellites